Terminal Aerodrome Forecast
Issued by NWS Mt. Holly, NJ

Home | Current Version | Previous Version | Text Only | Print | Product List | Glossary On
Versions: 1 2 3 4 5 6 7 8 9 10 11 12 13 14 15 16 17 18 19 20
000
FTUS41 KPHI 182300
TAFRDG
TAF
KRDG 182320Z 1900/1924 35004KT P6SM SCT060
     FM190400 02004KT P6SM FEW080
     FM191300 09006KT P6SM SCT060=

USA.gov is the U.S. government's official web portal to all federal, state and local government web resources and services.